When you browse on this site, cookies collect data to enhance your experience and personalize the content and advertising you see.
Visit our Privacy Policy to learn more. By continuing to use the site, you agree to this use of cookies and data.
  • In Netherlands
  • List of Countries
  • For 7 days
  • Water Temperature
  • Satellite Maps
  • Weather Map
  • Weather Widgets
  • user-avatar
    Login

    Hourly Weather Pernik

    Today, 17 July, Wednesday

    Time Temperature Precipitation Wind Pressure Humidity
    00:00 +13°C° 0 mm 1 mps 688 mmHg 88%
    01:00 +13°C° 0 mm 1 mps 688 mmHg 89%
    02:00 +13°C° 0 mm 1 mps 688 mmHg 90%
    03:00 +12°C° 0 mm 1 mps 688 mmHg 90%
    04:00 +12°C° 0 mm 1 mps 688 mmHg 90%
    05:00 +12°C° 0 mm 1 mps 688 mmHg 90%
    06:00 +13°C° 0 mm 1 mps 688 mmHg 86%
    07:00 +15°C° 0 mm 1 mps 689 mmHg 83%
    08:00 +17°C° 0 mm 2 mps 689 mmHg 78%
    09:00 +18°C° 0 mm 2 mps 689 mmHg 71%
    10:00 +20°C° 0 mm 2 mps 690 mmHg 63%
    11:00 +21°C° 0 mm 3 mps 690 mmHg 56%
    12:00 +22°C° 0.1 mm 3 mps 690 mmHg 56%
    13:00 +22°C° 0.1 mm 3 mps 689 mmHg 57%
    14:00 +22°C° 0.1 mm 4 mps 689 mmHg 57%
    15:00 +22°C° 0.1 mm 4 mps 689 mmHg 57%
    16:00 +22°C° 0.1 mm 4 mps 689 mmHg 56%
    17:00 +22°C° 0.1 mm 3 mps 689 mmHg 56%
    18:00 +20°C° 0 mm 3 mps 689 mmHg 62%
    19:00 +18°C° 0 mm 2 mps 688 mmHg 69%
    20:00 +17°C° 0 mm 2 mps 688 mmHg 76%
    21:00 +16°C° 0 mm 1 mps 688 mmHg 80%
    22:00 +15°C° 0 mm 1 mps 688 mmHg 83%
    23:00 +14°C° 0 mm 1 mps 689 mmHg 86%

    Tomorrow, 18 July, Thursday

    Time Temperature Precipitation Wind Pressure Humidity
    00:00 +14°C° 0 mm 1 mps 688 mmHg 87%
    01:00 +13°C° 0 mm 1 mps 688 mmHg 87%
    02:00 +13°C° 0 mm 1 mps 688 mmHg 88%
    03:00 +11°C° 0 mm 0 mps 688 mmHg 88%
    04:00 +11°C° 0 mm 0 mps 688 mmHg 89%
    05:00 +11°C° 0 mm 0 mps 688 mmHg 90%
    06:00 +12°C° 0 mm 0 mps 688 mmHg 85%
    07:00 +15°C° 0 mm 1 mps 689 mmHg 80%
    08:00 +18°C° 0 mm 1 mps 689 mmHg 75%
    09:00 +20°C° 0 mm 1 mps 690 mmHg 67%
    10:00 +21°C° 0 mm 1 mps 690 mmHg 60%
    11:00 +23°C° 0 mm 1 mps 690 mmHg 53%
    12:00 +24°C° 0 mm 1 mps 690 mmHg 50%
    13:00 +25°C° 0 mm 1 mps 690 mmHg 48%
    14:00 +25°C° 0 mm 1 mps 690 mmHg 45%
    15:00 +25°C° 0 mm 1 mps 690 mmHg 46%
    16:00 +25°C° 0 mm 1 mps 690 mmHg 46%
    17:00 +25°C° 0 mm 1 mps 690 mmHg 47%
    18:00 +23°C° 0 mm 1 mps 690 mmHg 54%
    19:00 +21°C° 0 mm 1 mps 690 mmHg 62%
    20:00 +19°C° 0 mm 1 mps 690 mmHg 70%
    21:00 +18°C° 0 mm 1 mps 690 mmHg 72%
    22:00 +18°C° 0 mm 1 mps 690 mmHg 75%
    23:00 +16°C° 0 mm 1 mps 690 mmHg 77%

    Day after tomorrow, 19 July, Friday

    Time Temperature Precipitation Wind Pressure Humidity
    00:00 +14°C° 0 mm 0 mps 690 mmHg 79%
    01:00 +14°C° 0 mm 0 mps 691 mmHg 80%
    02:00 +14°C° 0 mm 0 mps 691 mmHg 81%
    03:00 +13°C° 0 mm 0 mps 691 mmHg 81%
    04:00 +13°C° 0 mm 0 mps 691 mmHg 82%
    05:00 +12°C° 0 mm 0 mps 691 mmHg 83%
    06:00 +14°C° 0 mm 0 mps 691 mmHg 78%
    07:00 +16°C° 0 mm 0 mps 692 mmHg 73%
    08:00 +18°C° 0 mm 0 mps 692 mmHg 67%
    09:00 +20°C° 0 mm 0 mps 693 mmHg 62%
    10:00 +22°C° 0 mm 0 mps 693 mmHg 57%
    11:00 +26°C° 0 mm 1 mps 693 mmHg 51%
    12:00 +26°C° 0 mm 1 mps 693 mmHg 48%
    13:00 +27°C° 0 mm 1 mps 693 mmHg 45%
    14:00 +28°C° 0 mm 1 mps 693 mmHg 42%
    15:00 +27°C° 0.1 mm 1 mps 693 mmHg 43%
    16:00 +27°C° 0.1 mm 1 mps 693 mmHg 44%
    17:00 +27°C° 0.1 mm 1 mps 693 mmHg 45%
    18:00 +25°C° 0 mm 1 mps 692 mmHg 52%
    19:00 +23°C° 0 mm 1 mps 692 mmHg 60%
    20:00 +21°C° 0 mm 1 mps 692 mmHg 67%
    21:00 +20°C° 0 mm 1 mps 692 mmHg 70%
    22:00 +19°C° 0 mm 1 mps 692 mmHg 72%
    23:00 +18°C° 0 mm 1 mps 693 mmHg 75%

    20 July, Saturday

    Time Temperature Precipitation Wind Pressure Humidity
    00:00 +16°C° 0 mm 1 mps 693 mmHg 77%
    01:00 +16°C° 0 mm 1 mps 692 mmHg 78%
    02:00 +15°C° 0 mm 1 mps 692 mmHg 80%
    03:00 +14°C° 0 mm 0 mps 692 mmHg 81%
    04:00 +14°C° 0 mm 0 mps 692 mmHg 82%
    05:00 +13°C° 0 mm 0 mps 692 mmHg 84%
    06:00 +15°C° 0 mm 0 mps 693 mmHg 78%
    07:00 +17°C° 0 mm 0 mps 693 mmHg 73%
    08:00 +19°C° 0 mm 0 mps 694 mmHg 68%
    09:00 +23°C° 0 mm 1 mps 694 mmHg 61%
    10:00 +25°C° 0 mm 1 mps 694 mmHg 55%
    11:00 +26°C° 0 mm 1 mps 695 mmHg 49%
    12:00 +27°C° 0 mm 1 mps 695 mmHg 45%
    13:00 +28°C° 0 mm 1 mps 695 mmHg 42%
    14:00 +29°C° 0 mm 2 mps 695 mmHg 39%
    15:00 +28°C° 0 mm 2 mps 695 mmHg 41%
    16:00 +28°C° 0 mm 2 mps 694 mmHg 43%
    17:00 +28°C° 0 mm 2 mps 694 mmHg 45%
    18:00 +26°C° 0 mm 2 mps 694 mmHg 52%
    19:00 +24°C° 0 mm 2 mps 694 mmHg 60%
    20:00 +21°C° 0 mm 2 mps 693 mmHg 67%
    21:00 +21°C° 0 mm 1 mps 694 mmHg 69%
    22:00 +20°C° 0 mm 1 mps 694 mmHg 70%
    23:00 +17°C° 0 mm 0 mps 694 mmHg 71%

    21 July, Sunday

    Time Temperature Precipitation Wind Pressure Humidity
    00:00 +17°C° 0 mm 0 mps 694 mmHg 72%
    01:00 +16°C° 0 mm 0 mps 694 mmHg 73%
    02:00 +16°C° 0 mm 0 mps 694 mmHg 74%
    03:00 +15°C° 0 mm 0 mps 694 mmHg 75%
    04:00 +15°C° 0 mm 0 mps 694 mmHg 77%
    05:00 +15°C° 0 mm 0 mps 694 mmHg 78%
    06:00 +16°C° 0 mm 0 mps 694 mmHg 73%
    07:00 +18°C° 0 mm 0 mps 695 mmHg 68%
    08:00 +20°C° 0 mm 0 mps 695 mmHg 63%
    09:00 +22°C° 0 mm 0 mps 695 mmHg 57%
    10:00 +26°C° 0 mm 1 mps 696 mmHg 52%
    11:00 +28°C° 0 mm 1 mps 696 mmHg 46%
    12:00 +28°C° 0 mm 2 mps 696 mmHg 44%
    13:00 +29°C° 0 mm 2 mps 696 mmHg 41%
    14:00 +30°C° 0 mm 2 mps 696 mmHg 39%
    15:00 +29°C° 0 mm 2 mps 695 mmHg 43%
    16:00 +29°C° 0 mm 3 mps 695 mmHg 46%
    17:00 +28°C° 0 mm 3 mps 695 mmHg 50%
    18:00 +26°C° 0 mm 2 mps 695 mmHg 56%
    19:00 +24°C° 0 mm 2 mps 694 mmHg 63%
    20:00 +22°C° 0 mm 1 mps 694 mmHg 69%
    21:00 +22°C° 0 mm 1 mps 694 mmHg 71%
    22:00 +21°C° 0 mm 1 mps 694 mmHg 73%
    23:00 +18°C° 0 mm 0 mps 695 mmHg 74%

    22 July, Monday

    Time Temperature Precipitation Wind Pressure Humidity
    00:00 +18°C° 0 mm 0 mps 694 mmHg 75%
    01:00 +17°C° 0 mm 0 mps 694 mmHg 76%
    02:00 +17°C° 0 mm 0 mps 694 mmHg 77%
    03:00 +16°C° 0 mm 0 mps 694 mmHg 78%
    04:00 +16°C° 0 mm 0 mps 694 mmHg 79%
    05:00 +16°C° 0 mm 0 mps 694 mmHg 80%
    06:00 +18°C° 0 mm 0 mps 694 mmHg 75%
    07:00 +22°C° 0 mm 1 mps 694 mmHg 70%
    08:00 +24°C° 0 mm 1 mps 695 mmHg 64%
    09:00 +25°C° 0 mm 1 mps 695 mmHg 60%
    10:00 +27°C° 0 mm 2 mps 695 mmHg 55%
    11:00 +28°C° 0 mm 2 mps 695 mmHg 50%
    12:00 +29°C° 0 mm 3 mps 695 mmHg 48%
    13:00 +29°C° 0 mm 3 mps 695 mmHg 46%
    14:00 +30°C° 0 mm 3 mps 694 mmHg 45%
    15:00 +29°C° 0 mm 3 mps 694 mmHg 47%
    16:00 +29°C° 0 mm 3 mps 694 mmHg 49%
    17:00 +28°C° 0 mm 3 mps 693 mmHg 52%
    18:00 +26°C° 0 mm 3 mps 693 mmHg 58%
    19:00 +25°C° 0 mm 2 mps 693 mmHg 64%
    20:00 +23°C° 0 mm 1 mps 693 mmHg 70%
    21:00 +22°C° 0 mm 1 mps 693 mmHg 71%
    22:00 +21°C° 0 mm 1 mps 693 mmHg 72%
    23:00 +20°C° 0 mm 1 mps 693 mmHg 74%
    Show more